Regional Weather Roundup
Issued by NWS Wakefield, VA

Home | Current Version | Previous Version | Graphics & Text | Print | Product List | Glossary On
Versions: 1 2 3 4 5 6 7 8 9 10 11 12 13 14 15 16 17 18 19 20 21 22 23 24 25 26 27 28 29 30 31 32 33 34 35 36 37 38 39 40 41 42 43 44 45 46 47 48 49 50
000
ASUS41 KAKQ 200810
RWRAKQ

REGIONAL WEATHER ROUNDUP
NATIONAL WEATHER SERVICE WAKEFIELD VA
400 AM EDT MON OCT 20 2014

Note: "fair" indicates few or no clouds below 12,000 feet with no
significant weather and/or obstructions to visibility. * = Denotes
station may not report precipitation (e.g., rain,snow,etc.),
thunder or fog.

VAZ042-051-052>054-056-200900-
NORTHERN VIRGINIA

CITY           SKY/WX    TMP DP  RH WIND       PRES   REMARKS
WASH NATIONAL  MOCLDY    48  38  68 CALM      30.12S
DULLES         PTCLDY    37  36  96 CALM      30.10F
FORT BELVOIR   CLEAR     38  37  95 CALM      30.11F
QUANTICO       CLEAR     42  39  89 NW9       30.13S
FREDERICKSBRG* CLEAR     38  38 100 CALM      30.11S
STAFFORD*      CLEAR     34  34 100 CALM      30.15S
WARRENTON      CLEAR     36  36 100 CALM      30.09F
CULPEPER*      PTCLDY    36  36 100 CALM      30.12R
MANASSAS*      PTCLDY    39  39 100 CALM      30.11S
LEESBURG*      CLEAR     37  37 100 CALM      30.10F
WINCHESTER     MOCLDY    37  32  81 CALM      30.08F
FRONT ROYAL*   SUNNY     37  36  93 CALM      30.08S
LURAY*         SUNNY     39  37  93 CALM      30.08F
$$

VAZ048-049-060>072-079>083-200900-
CENTRAL AND SOUTH CENTRAL VIRGINIA...AND NORTH CENTRAL NORTH CAROLINA

CITY           SKY/WX    TMP DP  RH WIND       PRES   REMARKS
RICHMOND       PTCLDY    41  37  86 CALM      30.11F
CHESTERFIELD*  SUNNY     37  27  65 CALM      30.12F
PETERSBURG*    CLEAR     34  34  99 CALM      30.13S
HANOVER        CLEAR     37  35  92 CALM      30.13S
TAPPAHANNOCK*  CLEAR     35  33  89 CALM      30.13S
CHARLOTTSVILLE CLEAR     38  35  89 NW5       30.09F
ORANGE*        PTCLDY    37  36  93 CALM      30.11S
LOUISA*        CLEAR     39  36  87 S3        30.09S
FARMVILLE*     CLEAR     36  36 100 CALM      30.09S
CREWE*         SUNNY     36  35  93 CALM      30.10S
FORT PICKETT*    N/A     39  38  97 CALM      30.11S
LUNENBURG*     SUNNY     41  40  97 CALM      30.11R
SOUTH HILL*    CLEAR     39  39 100 CALM      30.17R
LAWRENCEVILLE* SUNNY     41  41  99 CALM      30.12S
ROANOKE RAPIDS SUNNY     37  36  93 CALM      30.13S
RALEIGH        PTCLDY    42  39  89 CALM      30.13S
$$

VAZ088>098-200900-
SOUTHEAST VIRGINIA

CITY           SKY/WX    TMP DP  RH WIND       PRES   REMARKS
NORFOLK        CLEAR     44  41  89 SW7       30.13R
VIRGINIA BEACH CLEAR     43  36  76 W3        30.12S
NORFOLK NAVAL  PTCLDY    48  42  80 SW5       30.14S
WEST POINT*    CLOUDY    39  37  92 CALM      30.14S
NEWPORT NEWS   PTCLDY    40  37  89 CALM      30.13S
LANGLEY AFB    PTCLDY    42  42 100 SW5       30.13S
FORT EUSTIS    PTCLDY    43  43 100 E1        30.11S
WILLIAMSBURG*  PTCLDY    45  43  93 CALM      30.14S
HR EXEC AP*    SUNNY     34  30  86 CALM      30.15S
FRANKLIN*      CLEAR     37  37 100 CALM      30.14S
WAKEFIELD      CLEAR     38  35  89 CALM      30.13S
$$

VAZ020-022-025-037-045-200900-
WEST CENTRAL AND SOUTHWEST VIRGINIA

CITY           SKY/WX    TMP DP  RH WIND       PRES   REMARKS
STAUNTON*      CLEAR     33  31  92 CALM      30.11S
HOT SPRINGS VA MOCLDY    46  11  24 SW14      30.04F
LYNCHBURG      PTCLDY    36  36 100 CALM      30.11S
DANVILLE       CLEAR     40  37  89 CALM      30.12F
SOUTH BOSTON*  NOT AVBL
MARTINSVILLE   CLEAR     36  36 100 CALM      30.13F
ROANOKE        CLEAR     41  35  79 NW3       30.12F
BLACKSBURG     PTCLDY    36  36 100 CALM      30.12S
DUBLIN*        PTCLDY    39  39 100 CALM      30.11F
MARION*        MOCLDY    37  35  94 CALM      30.12F
HILLSVILLE*    MOCLDY    40  36  86 S6        30.10S
RICHLANDS*     PTSUNNY   43  37  79 CALM      30.08R
WISE*          MOCLDY    43  36  75 S8        30.09S
ABINGDON*      PTCLDY    43  39  86 CALM      30.09S
$$

MDZ021>025-VAZ099-100-200900-
SOUTHERN MARYLAND AND THE DELMARVA PENINSULA

CITY           SKY/WX    TMP DP  RH WIND       PRES   REMARKS
PATUXENT RIVER PTCLDY    39  36  89 SW5       30.11S
BAY BRIDGE APT   N/A     45  37  76 CALM      30.10F
LEONARDTOWN    PTCLDY    37  34  87 CALM      30.13S
DOVER          PTCLDY    40  35  82 CALM      30.09R
GEORGETOWN     PTCLDY    37  34  89 CALM      30.12S
EASTON         PTCLDY    40  40 100 CALM      30.14S
CAMBRIDGE      PTCLDY    37  36  93 CALM      30.10F
SALISBURY      PTCLDY    38  33  82 CALM      30.12S
OCEAN CITY     PTCLDY    35  33  92 CALM      30.12S
WALLOPS ISLAND PTCLDY    40  37  89 CALM      30.12S
ACCOMACK*      PTCLDY    37  36  93 CALM      30.12S
$$

NCZ012>017-030>032-200900-
EASTERN NORTH CAROLINA

CITY           SKY/WX    TMP DP  RH WIND       PRES   REMARKS
ELIZABETH CITY CLEAR     41  39  93 SW3       30.14S
AHOSKIE*       CLEAR     37  36  96 CALM      30.14S
EDENTON*       CLEAR     41  39  93 CALM      30.14S
CURRITUCK*     CLEAR     43  40  88 CALM      30.14S
KILL DEVIL HLS CLEAR     55  45  69 W3        30.12S
MANTEO         CLEAR     48  42  80 CALM      30.13S
CAPE HATTERAS  CLEAR     49  43  80 CALM      30.13S
TARBORO*       FOG       40  39  98 CALM      30.14S VSB<1/4
GOLDSBORO      CLEAR     42  41  98 CALM      30.12F
WASHINGTON     CLEAR     40  40  97 CALM      30.14S
GREENVILLE       N/A     41  41 100 CALM      30.15S FOG
NEW BERN       MOCLDY    44  41  89 CALM      30.15F FOG
WILMINGTON     CLEAR     45  43  93 CALM      30.14F
$$

VAZ048-200900-
ELSEWHERE

CITY           SKY/WX    TMP DP  RH WIND       PRES   REMARKS
HARRISBURG PA  MOCLDY    39  35  86 CALM      30.08S
BALTIMORE      PTCLDY    39  35  86 CALM      30.10F
ANNAPOLIS      PTCLDY    44  39  82 CALM      30.10F
ANDREWS AFB    CLEAR     38  36  91 S2        30.10S
WILMINGTON DE  PTCLDY    38  35  89 CALM      30.11S
PHILADELPHIA   PTCLDY    42  32  67 CALM      30.11F
WILDWOOD NJ*   PTCLDY    39  28  65 CALM      30.12S
ATLANTIC CITY  PTCLDY    33  30  88 CALM      30.12S
HENDERSON NC   CLEAR     41  40  96 SW5       30.12S
GREENSBORO     PTCLDY    46  41  82 CALM      30.10F
ROCKY MOUNT    CLEAR     40  39  97 CALM      30.13S FOG
FAYETTEVILLE   CLEAR     47  42  83 S3        30.13F
CHARLOTTE      MOCLDY    49  42  77 CALM      30.12S
$$

VAZ100-200900-
MARINE

STATION/POSITION TIME  TEMP    WIND        PRES    WAVE   SWELL
                       AIR SEA DIR/SP/G            HT/PER HT/PER
                 (UTC) (F)     (DEG/KT/KT) (MB)    (FT/S) (FT/S)
44066 TX TWR #4  0800   51 65  330/ 16/ 19 1017.8R   5/ 7   2/11
CAPE MAY NJ      0800   44 65   70/  4/  5 1019.2F
LEWES DE         0800   43 62  220/  8/ 10 1019.3R
15NM E FENWICK I 0800   56 65  290/  8/ 12 1019.3R   3/12   2/12
OCEAN-CITY-INLET 0800   49 63  300/  2/  4 1019.5R
WACHAPREAGUE VA  0800   44 60  310/  2/  2 1019.9R
THOMAS POINT MD  0800   52 64  310/  5/  5 1020.4F
GOOSES REEF MD   0800   57      10/  6/  8 1019.9S
COVE POINT MD    0800   55     320/  3/  4 1019.2F
SOLOMONS ISLAND  0800      65                N/A
BISHOPS HEAD MD  0800   52 57   10/  3/  4 1019.1S
PINEY POINT MD   0800             CALM       N/A
POTOMAC MD       0800   56     340/  4/  6 1019.1S
CAMBRIDGE MD     0800   47 63  160/  2/  3 1019.2R
LEWISETTA VA     0800   47 62  240/  3/  4 1019.6S
RAPPAHANNOCK LGT 0800          320/  8/  9 1020.2R
STINGRAY PT      0800   58     330/  4/  6 1020.4F
YORK RVR RNG VA  0800   58     330/  3/  5 1019.5S
YORKTOWN VA      0800   49 66  220/  2/  2 1019.8R
JAMESTOWN VA     0800   49     250/  4/  4   N/A
DOMINION TERM VA 0800   57     250/  4/  6 1020.2R
KIPTOPEKE VA     0800      68   70/  4/  4   N/A
CHES BAY BRIDGE  0800   60 67   10/  2/  4 1019.4S
CHESAPEAKE LGHT  0700   59      20/ 10/ 11 1020.3F
WILLOUBY STN VA  0800   58     340/  5/  5 1018.7S
S CRANEY ISL VA  0800          210/  3/  4 1019.9S
CAPE HENRY BUOY  0800      69                N/A     3/12   2/12
1ST LANDING BUOY 0800   60      30/  4/  8 1019.5S
CAPE CHARLES BUO 0800      69                N/A     2/12   2/12
64NM E OF VA BCH 0800   60 69  360/  6/ 12 1019.4S   4/13   3/13
DUCK PIER NC     0800   58 68  300/  6/  8 1019.3R
44100 DUCK FRF   0800      71                N/A     4/13   2/13
44056 DUCK FRF   0800                        N/A     4/ 5   2/13
OREGON INLET NC  0800   57 69  300/  4/  5 1020.0R
HATTERAS NC      0800   60 66   40/  3/  4 1020.7S
DIAMOND SHLS NC  0800   61     350/  6/ 10 1020.3R   4/12   3/12
CAPE LOOKOUT NC  0700   59     350/  7/  8 1020.3F
$$



USA.gov is the U.S. government's official web portal to all federal, state and local government web resources and services.